Wind_Speed
8 11 9 20 23 29 32 30 29 27 26 26 22 18 16 15 12 12 16 21 18 17 15 12 10 9 6 6 6 5 5 7 5 5 4 3 5 13 15 12 12 14 16
9 9 4 16 27 31 32 32 31 28 28 27 25 21 17 15 13 11 12 18 21 19 17 15 14 10 8 5 1 6 7 5 3 2 2 3 2 5 11 12 14 16 16
9 9 13 9 23 27 34 33 31 32 30 29 26 21 17 18 16 13 12 15 20 23 21 18 17 16 13 11 8 6 6 6 5 4 2 1 1 4 6 12 13 16 17
9 11 8 4 9 20 27 31 29 29 26 28 25 25 23 21 21 14 15 15 17 23 24 24 21 19 17 15 14 12 10 6 4 3 5 7 4 2 4 6 13 14 17
6 6 8 8 7 8 16 23 24 26 20 22 22 26 27 24 20 19 15 17 17 20 24 25 24 22 19 19 16 14 13 12 10 9 5 3 2 4 2 3 5 11 18
1 2 3 9 11 6 6 17 18 23 15 24 21 23 22 22 22 24 23 21 19 18 22 23 25 24 22 21 19 18 16 16 14 13 12 10 5 4 4 3 6 7 12
8 3 4 7 12 10 1 14 27 20 24 26 28 23 26 26 26 29 26 24 21 20 23 22 22 23 24 21 19 20 18 16 17 16 15 14 14 11 9 6 5 3 4
9 9 11 12 11 18 21 9 7 13 21 27 29 24 28 28 29 32 29 27 26 23 22 21 22 21 21 22 21 22 21 19 19 18 18 18 17 16 14 11 6 3 3
9 9 11 12 14 21 23 23 18 16 12 12 7 5 9 8 10 17 23 30 28 22 27 30 25 22 22 19 17 17 22 22 21 20 19 19 19 20 19 19 18 11 2
9 7 10 17 19 19 19 19 19 19 17 17 14 10 6 9 9 10 12 13 14 15 25 27 24 20 20 21 22 24 22 23 23 23 22 22 22 21 19 18 19 20 20
7 6 8 13 14 15 15 15 16 16 14 13 12 12 12 13 13 13 13 14 14 14 14 16 20 19 22 20 21 23 24 24 26 25 25 25 23 23 21 18 18 20 21
7 6 10 13 14 13 11 12 12 14 14 13 13 13 13 14 14 15 16 15 15 14 15 15 13 15 18 22 22 21 20 23 24 26 25 28 26 27 27 26 24 24 23
8 6 9 10 12 11 10 10 11 11 13 14 15 14 15 15 15 15 15 15 15 14 14 15 16 15 14 16 13 17 17 21 23 24 25 27 27 28 27 28 29 24 21
8 6 6 8 11 11 9 7 7 8 10 12 13 12 14 15 16 17 16 15 15 14 13 14 15 14 14 14 14 16 16 18 19 20 21 23 24 26 26 26 28 28 21
6 5 5 5 7 7 7 7 7 10 13 14 14 13 13 14 17 18 19 18 17 15 14 14 13 14 14 13 13 13 14 15 16 15 15 18 20 21 21 23 26 25 25
7 6 6 6 6 8 8 6 8 12 15 14 13 14 17 19 19 19 20 20 19 19 18 16 15 16 15 13 14 14 15 15 17 17 17 18 18 20 21 22 22 27 25
7 7 6 9 12 9 6 5 8 11 12 11 14 18 19 20 21 20 20 19 19 19 20 20 19 19 18 15 13 13 16 16 15 16 17 17 17 16 18 19 21 22 22
8 7 12 13 11 8 5 6 7 8 10 12 16 19 21 23 23 22 20 20 19 19 20 22 22 22 21 18 16 15 15 15 18 18 17 18 16 14 13 15 19 22 24
11 13 15 12 9 7 7 7 7 8 12 14 18 20 20 22 22 22 22 21 21 22 21 19 21 21 25 21 19 17 18 17 18 16 15 15 14 9 11 13 17 22 19
19 20 14 12 8 7 7 7 8 10 13 17 19 20 19 20 21 20 22 25 22 23 21 22 20 19 22 20 18 15 17 18 16 14 13 11 8 8 10 12 13 17 20
19 16 12 10 7 7 8 9 10 13 15 18 19 19 17 19 18 19 23 22 23 21 21 21 21 18 16 16 13 13 12 13 13 9 6 4 7 10 11 13 15 16 18
16 13 11 7 7 8 10 10 10 12 14 16 16 19 17 16 18 19 21 22 20 20 20 19 21 19 17 13 8 10 8 8 8 7 5 8 11 13 14 13 13 13 16
13 8 7 6 4 6 6 8 11 12 14 15 16 17 18 17 17 18 21 23 22 20 18 16 17 20 17 16 10 8 6 8 9 8 10 12 13 14 15 13 13 13 12
11 8 5 4 3 4 6 7 10 12 11 13 14 16 17 17 18 19 20 20 18 18 18 16 15 18 17 16 15 13 9 6 8 11 14 15 14 13 13 13 11 10 11
9 6 4 3 3 3 4 8 8 9 10 11 14 16 16 15 19 18 16 11 17 22 21 24 18 19 21 21 18 17 15 13 13 16 13 12 13 13 12 13 12 12 14
10 8 5 2 2 3 4 7 6 6 9 10 13 16 15 15 15 18 18 12 8 17 19 20 21 18 19 18 19 16 12 10 9 6 8 10 12 12 13 13 14 14 16
Wind_Direction
178 151 175 205 201 211 210 206 204 209 210 210 215 227 239 235 243 239 238 235 238 236 242 234 240 249 271 285 272 268 260 283 271 312 319 248 215 264 256 254 247 246 254
179 150 180 198 200 206 213 210 214 214 213 216 215 221 232 242 250 250 248 239 238 236 239 237 233 225 227 247 303 227 259 282 284 302 0 4 326 281 245 248 241 242 251
8 9 357 286 195 199 216 217 220 217 214 216 219 225 234 239 249 251 246 238 233 233 236 240 244 239 235 233 242 246 249 259 280 276 251 42 226 307 253 252 253 252 257
27 14 3 335 229 206 214 220 222 228 225 224 227 225 229 237 243 249 246 241 239 234 235 245 249 249 250 245 248 245 251 238 250 264 238 248 258 202 320 296 272 261 256
52 24 19 25 20 166 215 223 223 232 235 233 232 237 244 250 256 251 256 244 245 240 242 250 250 252 253 253 250 248 242 241 255 262 268 239 199 199 180 285 300 273 267
199 29 7 20 44 81 176 224 212 214 236 247 246 242 247 262 271 269 255 253 254 253 247 252 250 251 254 257 259 254 250 245 248 253 250 251 237 207 200 246 283 264 290
154 172 57 50 53 50 227 215 223 209 215 250 255 260 266 269 270 269 260 254 249 254 258 261 259 256 259 265 264 257 256 253 253 255 259 259 257 249 241 229 264 281 305
92 108 93 64 65 65 65 129 187 215 209 217 238 241 252 261 261 263 262 261 259 263 271 265 261 264 265 265 262 259 260 259 260 258 259 264 261 257 249 250 235 286 279
100 101 90 86 73 71 73 82 86 88 109 158 131 188 246 265 292 276 268 262 261 262 269 266 258 263 259 263 264 267 256 259 261 262 265 265 265 263 256 247 248 234 257
117 113 107 90 80 79 75 65 63 62 58 56 53 44 10 358 341 331 322 318 316 275 258 264 264 252 255 260 265 264 258 254 257 264 266 267 269 270 268 258 248 241 241
139 127 107 97 87 75 62 52 41 36 40 40 36 34 22 6 359 352 342 337 338 334 320 300 267 256 251 254 249 255 261 255 258 256 263 264 269 270 273 267 255 242 238
140 132 122 118 101 83 65 48 38 33 28 17 11 6 357 355 353 352 344 342 332 331 322 326 317 276 255 248 258 252 253 260 258 264 263 266 269 270 272 267 260 250 243
140 132 149 136 109 95 86 75 49 29 12 2 354 348 359 1 358 352 346 343 335 328 326 316 310 304 288 261 260 264 261 261 263 265 266 271 274 273 273 273 271 265 258
147 157 136 123 108 106 102 81 61 31 14 4 3 359 354 355 351 347 344 342 347 348 331 315 312 307 299 291 282 278 272 265 265 265 267 270 269 267 266 270 271 273 263
152 147 120 109 102 86 76 58 37 7 356 352 354 356 351 346 343 340 338 334 333 334 335 331 315 309 302 300 293 279 274 276 277 273 272 275 277 280 277 273 269 265 264
151 141 125 126 110 100 84 54 16 354 345 345 355 347 338 337 335 332 331 329 326 323 321 318 319 315 312 302 294 290 282 280 278 280 281 280 281 280 277 276 282 270 263
144 140 143 142 133 114 88 39 0 351 351 350 345 343 340 339 340 335 331 328 327 324 318 311 309 305 305 310 303 298 294 282 287 284 280 286 292 293 289 286 281 277 270
149 143 145 138 124 105 66 16 2 355 354 350 344 342 340 338 337 334 332 331 327 323 318 312 305 300 294 303 309 308 304 296 293 287 281 284 292 295 294 294 290 287 282
148 152 142 130 117 78 45 16 3 352 345 344 339 338 337 333 330 328 326 330 329 323 317 311 307 300 288 295 300 308 304 295 289 290 284 282 284 300 305 300 294 289 297
137 135 135 124 107 71 39 22 9 355 351 343 334 331 331 328 327 323 322 327 327 325 324 317 313 305 295 293 291 297 296 285 286 289 285 277 264 288 299 300 308 302 302
140 136 133 115 91 61 27 16 0 351 342 339 339 339 335 330 330 323 322 327 329 328 327 319 321 315 309 297 289 290 285 278 273 270 286 268 293 299 304 308 306 312 312
140 135 116 96 66 33 15 7 342 332 335 336 337 337 337 335 334 333 336 340 338 332 324 319 321 330 329 319 310 319 277 279 257 274 277 293 299 304 308 306 309 315 314
124 119 98 79 50 20 6 344 336 330 332 336 332 334 335 339 347 344 344 342 334 322 314 318 314 317 329 327 326 336 322 304 287 288 296 303 304 306 306 307 307 311 324
144 141 121 92 22 358 358 346 337 336 331 327 331 335 333 337 350 351 346 351 14 16 13 359 352 342 341 338 322 318 325 300 286 288 298 307 312 311 311 307 304 312 320
160 157 123 60 356 334 323 338 328 335 330 341 348 343 346 350 349 354 357 15 49 39 32 22 24 14 3 359 348 334 322 307 296 298 311 328 336 335 332 324 317 314 315
173 177 178 194 242 254 303 331 334 333 328 337 353 354 355 352 345 354 357 21 344 26 30 35 31 26 20 8 10 15 3 348 347 0 3 352 344 333 328 323 323 320 318
Height
781 780 785 792 799 804 804 807 810 813 816 817 818 820 822 823 823 823 823 824 825 825 824 824 826 827 828 827 827 828 829 828 826 824 823 823 823 822 821 822 822 822 823
778 782 787 789 792 797 801 804 807 811 814 817 818 818 820 821 821 822 822 822 823 823 823 823 824 824 825 826 825 825 826 827 826 825 826 826 825 821 819 819 818 818 818
788 789 793 798 793 796 798 801 805 809 812 815 819 820 820 820 819 819 819 820 820 821 821 820 821 822 823 823 823 823 823 824 824 824 826 827 829 825 819 816 816 815 814
794 796 796 800 800 798 800 801 806 812 814 816 818 818 819 818 818 819 818 818 818 818 819 818 819 819 820 820 820 820 820 821 822 822 822 824 824 826 824 816 813 811 809
805 805 799 800 804 799 801 802 807 811 815 816 817 817 817 817 817 817 816 816 816 815 816 816 816 816 816 817 818 818 818 818 819 819 820 821 822 822 822 820 813 810 808
804 802 801 805 801 799 799 799 799 805 812 814 815 814 814 815 813 813 814 812 813 813 813 812 812 812 812 813 814 815 815 815 816 816 817 818 820 819 820 819 813 810 806
799 803 805 807 802 799 798 796 794 799 807 811 815 814 810 813 810 810 809 809 809 810 810 810 808 808 808 810 810 811 811 813 813 814 814 814 815 817 817 817 814 811 806
801 805 809 806 808 804 798 800 803 806 808 803 809 812 810 807 809 809 806 805 805 807 807 808 806 805 804 804 805 806 807 808 809 809 810 810 810 812 813 813 811 810 806
804 803 806 807 809 805 806 810 811 811 812 810 810 808 809 809 806 803 801 799 797 797 793 802 800 802 801 800 800 800 800 802 802 802 803 804 805 806 807 807 808 806 807
806 806 805 804 805 805 806 808 810 809 808 805 805 806 807 806 803 801 799 797 796 797 796 795 792 793 796 796 796 795 795 795 795 795 796 796 798 800 800 801 802 802 800
807 807 806 805 806 806 806 807 808 807 807 806 806 807 806 804 802 798 797 795 794 793 791 789 787 789 788 788 788 789 792 793 791 790 789 789 792 792 793 794 795 796 796
805 807 808 808 807 808 808 809 809 810 809 808 806 804 803 802 800 797 795 793 791 790 788 786 784 782 782 782 783 784 785 787 787 785 785 784 785 785 786 787 787 789 789
807 810 812 811 809 809 811 812 812 811 810 808 806 804 802 800 799 797 795 792 789 787 785 783 782 781 780 779 780 779 779 782 781 781 781 780 780 780 780 779 779 781 782
805 810 811 809 809 811 812 813 814 815 814 812 809 806 802 800 799 797 794 792 789 786 783 782 780 778 777 777 776 775 775 776 775 776 775 775 776 774 774 774 773 773 776
807 807 807 808 808 809 810 811 811 812 811 809 806 803 802 799 797 795 793 790 787 784 782 780 778 776 774 773 772 772 771 771 770 770 769 770 769 769 770 770 768 768 768
806 806 807 809 811 810 810 811 811 810 809 807 805 803 801 798 796 794 791 789 786 783 781 778 775 773 771 770 769 768 767 766 765 764 764 765 764 764 764 765 763 763 762
804 806 809 812 812 811 811 812 812 811 809 808 806 804 800 797 795 792 789 786 784 781 778 775 772 769 767 766 765 764 763 762 761 761 761 760 760 759 759 759 758 757 756
804 807 811 813 812 811 812 813 812 812 810 809 807 804 800 796 793 791 788 785 782 778 775 771 768 765 762 762 761 759 758 757 757 757 757 756 755 755 755 753 752 750 749
804 808 810 811 812 812 811 812 812 812 811 809 806 802 798 795 792 789 785 782 778 774 771 767 764 761 758 758 758 757 755 752 751 752 752 751 751 751 750 749 746 743 743
805 807 811 812 813 812 811 811 811 811 809 807 804 800 797 794 790 787 783 779 775 770 766 763 760 756 753 753 754 753 751 748 747 747 747 747 748 747 747 745 743 740 738
807 809 811 812 812 809 809 810 810 809 808 805 801 798 795 792 789 785 781 776 772 767 763 759 755 752 750 748 748 747 745 744 742 743 743 744 745 744 744 742 740 737 735
808 810 810 810 808 808 808 809 809 808 807 804 801 797 794 791 787 783 778 774 769 765 760 756 752 748 746 745 745 743 742 740 740 740 740 741 741 740 739 738 736 734 731
804 808 808 807 808 809 810 810 809 807 805 802 799 796 792 789 786 782 777 772 767 763 758 754 752 747 744 744 742 740 739 739 739 739 739 738 738 736 734 733 732 730 727
806 808 808 809 809 809 808 808 808 806 805 802 799 796 792 788 784 780 776 772 767 762 759 756 752 748 745 742 738 736 736 735 735 734 734 734 733 732 730 728 727 726 724
806 807 807 808 808 809 810 809 807 806 804 801 797 794 790 786 783 780 777 774 771 766 763 759 754 751 747 745 740 735 732 732 731 730 730 729 728 727 726 725 724 722 719
805 806 807 808 809 809 809 808 806 805 802 799 796 793 790 787 784 780 777 775 772 768 765 762 758 754 751 746 741 736 732 730 728 728 728 728 728 727 725 723 720 717 715